Weather History for KGDV - January, 2015

Change the Weather History Date:

Thursday, January 1, 2015

  Actual Average Record
Temperature  
Mean Temperature 28 °F -  
Max Temperature 33 °F 23 °F 48 °F (1998)
Min Temperature 23 °F 7 °F -16 °F (2011)
Degree Days  
Heating Degree Days 37    
Moisture  
Dew Point 19 °F    
Average Humidity 66    
Maximum Humidity 86    
Minimum Humidity 51    
Precipitation  
Precipitation 0.00 in - - ()
Sea Level Pressure  
Sea Level Pressure 29.98 in    
Wind  
Wind Speed 10 mph (WSW)    
Max Wind Speed 16 mph    
Max Gust Speed 22 mph    
Visibility 10 miles    
Events      
Averages and records for this station are not official NWS values.
T = Trace of Precipitation, MM = Missing Value Source: NWS Daily Summary

Daily Weather History Graph

Daily Weather History Graph

Search for Another Location

Airport or City:

Trip Planner

Search our weather history database for the weather conditions in past years. The results will help you decide how hot, cold, wet, or windy it might be!

Date:

Astronomy

Jan. 01, 2015 Rise Set
Actual Time 7:45 AM MST 4:20 PM MST
Civil Twilight 7:10 AM MST 4:55 PM MST
Nautical Twilight 6:31 AM MST 5:34 PM MST
Astronomical Twilight 5:54 AM MST 6:11 PM MST
Moon 2:01 PM MST (1/1) 4:09 AM MST (1/1)
Length of Visible Light 9h 45m
Length of Day
8h 34m
Waxing Gibbous, 88% of the Moon is Illuminated
Jan 1
Waxing Gibbous
Jan 4
Full
Jan 13
Last Quarter
Jan 20
New
Jan 26
First Quarter

Hourly Weather History & Observations

Time (MST) Temp. Windchill Dew Point Humidity Pressure Visibility Wind Dir Wind Speed Gust Speed Precip Events Conditions
12:15 AM 23.0 °F 10.6 °F 12.2 °F 63% 29.93 in 10.0 mi SW 13.8 mph - N/A   Overcast
12:35 AM 24.8 °F 14.0 °F 12.2 °F 59% 29.93 in 10.0 mi WSW 11.5 mph - N/A   Overcast
12:55 AM 28.4 °F 17.0 °F 12.2 °F 51% 29.92 in 10.0 mi West 15.0 mph 21.9 mph N/A   Overcast
1:15 AM 28.4 °F 18.5 °F 12.2 °F 51% 29.92 in 10.0 mi West 11.5 mph - N/A   Overcast
1:35 AM 28.4 °F 20.4 °F 12.2 °F 51% 29.92 in 10.0 mi SW 8.1 mph - N/A   Overcast
1:55 AM 26.6 °F 20.0 °F 12.2 °F 55% 29.92 in 10.0 mi South 5.8 mph - N/A   Overcast
2:15 AM 30.2 °F 19.8 °F 17.6 °F 60% 29.93 in 10.0 mi West 13.8 mph - N/A   Overcast
2:35 AM 30.2 °F 19.3 °F 14.0 °F 51% 29.92 in 10.0 mi West 15.0 mph - N/A   Overcast
2:55 AM 28.4 °F 17.5 °F 14.0 °F 55% 29.92 in 10.0 mi WSW 13.8 mph - N/A   Overcast
3:15 AM 28.4 °F 19.1 °F 14.0 °F 55% 29.92 in 10.0 mi West 10.4 mph - N/A   Overcast
3:35 AM 28.4 °F 22.2 °F 14.0 °F 55% 29.92 in 10.0 mi West 5.8 mph - N/A   Overcast
3:55 AM 28.4 °F 21.2 °F 15.8 °F 59% 29.92 in 10.0 mi West 6.9 mph - N/A   Overcast
4:15 AM 28.4 °F 23.3 °F 14.0 °F 55% 29.92 in 10.0 mi WSW 4.6 mph - N/A   Overcast
4:35 AM 28.4 °F 21.2 °F 14.0 °F 55% 29.92 in 10.0 mi SW 6.9 mph - N/A   Overcast
4:55 AM 28.4 °F 19.7 °F 15.8 °F 59% 29.91 in 10.0 mi SW 9.2 mph - N/A   Overcast
5:15 AM 28.4 °F 23.3 °F 15.8 °F 59% 29.92 in 10.0 mi WSW 4.6 mph - N/A   Overcast
5:35 AM 28.4 °F 24.6 °F 14.0 °F 55% 29.92 in 10.0 mi South 3.5 mph - N/A   Overcast
5:55 AM 28.4 °F 21.2 °F 15.8 °F 59% 29.92 in 10.0 mi WSW 6.9 mph - N/A   Overcast
6:15 AM 28.4 °F 21.2 °F 15.8 °F 59% 29.93 in 10.0 mi West 6.9 mph - N/A   Overcast
6:35 AM 28.4 °F 23.3 °F 15.8 °F 59% 29.94 in 10.0 mi West 4.6 mph - N/A   Overcast
6:55 AM 28.4 °F 21.2 °F 15.8 °F 59% 29.94 in 10.0 mi SW 6.9 mph - N/A   Overcast
7:15 AM 28.4 °F 20.4 °F 15.8 °F 59% 29.94 in 10.0 mi WSW 8.1 mph - N/A   Overcast
7:35 AM 28.4 °F 20.4 °F 17.6 °F 64% 29.94 in 10.0 mi WSW 8.1 mph - N/A   Overcast
7:55 AM 28.4 °F 20.4 °F 15.8 °F 59% 29.95 in 10.0 mi West 8.1 mph - N/A   Overcast
8:15 AM 28.4 °F 19.7 °F 17.6 °F 64% 29.96 in 10.0 mi West 9.2 mph - N/A   Overcast
8:35 AM 28.4 °F 19.1 °F 17.6 °F 64% 29.97 in 10.0 mi West 10.4 mph - N/A   Scattered Clouds
8:55 AM 30.2 °F 21.9 °F 17.6 °F 60% 29.98 in 10.0 mi West 9.2 mph - N/A   Clear
9:15 AM 30.2 °F 20.2 °F 17.6 °F 60% 29.98 in 10.0 mi WNW 12.7 mph - N/A   Clear
9:35 AM 30.2 °F 19.3 °F 17.6 °F 60% 30.00 in 10.0 mi WNW 15.0 mph - N/A   Clear
9:55 AM 30.2 °F 20.8 °F 17.6 °F 60% 30.00 in 10.0 mi WNW 11.5 mph 17.3 mph N/A   Clear
10:15 AM 30.2 °F 18.9 °F 17.6 °F 60% 30.00 in 10.0 mi WNW 16.1 mph - N/A   Clear
10:35 AM 30.2 °F 19.3 °F 19.4 °F 64% 30.00 in 10.0 mi WNW 15.0 mph 19.6 mph N/A   Mostly Cloudy
10:55 AM 30.2 °F 19.8 °F 19.4 °F 64% 30.00 in 10.0 mi NW 13.8 mph - N/A   Overcast
11:15 AM 32.0 °F 22.1 °F 19.4 °F 60% 30.00 in 10.0 mi NW 13.8 mph - N/A   Overcast
11:35 AM 32.0 °F 22.5 °F 19.4 °F 60% 30.00 in 10.0 mi NW 12.7 mph - N/A   Overcast
11:55 AM 30.2 °F 21.3 °F 19.4 °F 64% 30.00 in 10.0 mi WNW 10.4 mph - N/A   Overcast
12:15 PM 32.0 °F 22.5 °F 19.4 °F 60% 30.00 in 10.0 mi NNW 12.7 mph - N/A   Overcast
12:35 PM 32.0 °F 22.5 °F 19.4 °F 60% 29.99 in 10.0 mi NW 12.7 mph - N/A   Overcast
12:55 PM 32.0 °F 22.1 °F 21.2 °F 64% 29.99 in 10.0 mi WNW 13.8 mph - N/A   Overcast
1:15 PM 33.8 °F 25.3 °F 21.2 °F 60% 29.98 in 10.0 mi NW 11.5 mph - N/A   Mostly Cloudy
1:35 PM 32.0 °F 23.6 °F 21.2 °F 64% 29.99 in 10.0 mi NNW 10.4 mph - N/A   Mostly Cloudy
1:55 PM 32.0 °F 23.6 °F 21.2 °F 64% 30.00 in 10.0 mi NW 10.4 mph - N/A   Overcast
2:15 PM 32.0 °F 24.8 °F 21.2 °F 64% 30.00 in 10.0 mi NW 8.1 mph - N/A   Overcast
2:35 PM 30.2 °F 22.6 °F 21.2 °F 69% 30.00 in 10.0 mi NNW 8.1 mph - N/A   Overcast
2:55 PM 30.2 °F 21.3 °F 21.2 °F 69% 30.01 in 10.0 mi NW 10.4 mph - N/A   Overcast
3:15 PM 30.2 °F 21.3 °F 21.2 °F 69% 30.01 in 10.0 mi NW 10.4 mph - N/A   Overcast
3:35 PM 30.2 °F 23.4 °F 21.2 °F 69% 30.01 in 10.0 mi WNW 6.9 mph - N/A   Overcast
3:55 PM 30.2 °F 23.4 °F 21.2 °F 69% 30.01 in 10.0 mi West 6.9 mph - N/A   Overcast
4:15 PM 30.2 °F 25.4 °F 21.2 °F 69% 30.03 in 10.0 mi WNW 4.6 mph - N/A   Overcast
4:35 PM 30.2 °F 26.7 °F 21.2 °F 69% 30.03 in 10.0 mi WNW 3.5 mph - N/A   Overcast
4:55 PM 28.4 °F 24.6 °F 21.2 °F 74% 30.03 in 10.0 mi WNW 3.5 mph - N/A   Overcast
5:15 PM 28.4 °F 23.3 °F 21.2 °F 74% 30.02 in 10.0 mi WSW 4.6 mph - N/A   Overcast
5:35 PM 28.4 °F 22.2 °F 21.2 °F 74% 30.01 in 10.0 mi WSW 5.8 mph - N/A   Overcast
5:55 PM 28.4 °F 22.2 °F 21.2 °F 74% 30.02 in 10.0 mi WSW 5.8 mph - N/A   Overcast
6:15 PM 28.4 °F 22.2 °F 21.2 °F 74% 30.02 in 10.0 mi WSW 5.8 mph - N/A   Overcast
6:35 PM 26.6 °F 19.1 °F 21.2 °F 80% 30.02 in 10.0 mi SSW 6.9 mph - N/A   Mostly Cloudy
6:55 PM 24.8 °F 17.9 °F 19.4 °F 80% 30.02 in 10.0 mi SW 5.8 mph - N/A   Clear
7:15 PM 24.8 °F 16.9 °F 19.4 °F 80% 30.02 in 10.0 mi SW 6.9 mph - N/A   Clear
7:35 PM 26.6 °F 20.0 °F 21.2 °F 80% 30.01 in 10.0 mi SW 5.8 mph - N/A   Mostly Cloudy
7:55 PM 26.6 °F 21.2 °F 21.2 °F 80% 30.01 in 10.0 mi SW 4.6 mph - N/A   Overcast
8:15 PM 24.8 °F 16.1 °F 21.2 °F 86% 30.01 in 10.0 mi SSW 8.1 mph - N/A   Overcast
8:35 PM 26.6 °F 18.2 °F 21.2 °F 80% 30.00 in 10.0 mi SSW 8.1 mph - N/A   Overcast
8:55 PM 28.4 °F 21.2 °F 21.2 °F 74% 29.99 in 10.0 mi SSW 6.9 mph - N/A   Overcast
9:15 PM 28.4 °F 21.2 °F 23.0 °F 80% 29.99 in 10.0 mi SSW 6.9 mph - N/A   Overcast
9:35 PM 28.4 °F 23.3 °F 23.0 °F 80% 29.99 in 10.0 mi SSW 4.6 mph - N/A   Overcast
9:55 PM 28.4 °F 21.2 °F 23.0 °F 80% 30.00 in 10.0 mi SW 6.9 mph - N/A   Overcast
10:15 PM 28.4 °F 21.2 °F 23.0 °F 80% 30.00 in 10.0 mi SW 6.9 mph - N/A   Overcast
10:35 PM 28.4 °F 20.4 °F 23.0 °F 80% 30.00 in 10.0 mi SSW 8.1 mph - N/A   Overcast
10:55 PM 28.4 °F 22.2 °F 23.0 °F 80% 30.00 in 10.0 mi South 5.8 mph - N/A   Overcast
11:15 PM 28.4 °F 21.2 °F 23.0 °F 80% 29.99 in 10.0 mi SSE 6.9 mph - N/A   Overcast
11:35 PM 28.4 °F 19.7 °F 21.2 °F 74% 29.98 in 10.0 mi South 9.2 mph - N/A   Mostly Cloudy
11:55 PM 24.8 °F 15.3 °F 21.2 °F 86% 29.98 in 10.0 mi SSE 9.2 mph - N/A   Scattered Clouds